Content
SEND FEEDBACK

Daily
Averages
Monthly
Summary
United States of America

TELEPHONE, TEXAS


Home > North America > United States > Texas
Elevation: 520 feet     Latitude: 33 47N     Longitude: 096 02W

WEATHER
 
SELECT A DAY
Number of Records: 324,318;   Date Range: 3/30/01 - 8/12/14
 
SHARE

PRINT THIS DATA

[ ← Previous Day ]
WEATHER ALMANAC - FEBRUARY 13, 2013
[ Next Day → ]
[ °C ]   °F
Weather ElementAverageHighLow
Temperature43.3 °F55.4 °F (4:15 pm)37.4 °F (12:35 am)
Dewpoint35.8 °F37.4 °F (11:55 am)33.8 °F (3:55 pm)
Humidity76.9 %93 % (12:35 am)44 % (4:15 pm)
Barometer30.06 in30.14 in (9:35 am)30.00 in (5:35 pm)
Wind Speed7.1 mph13.8 mph (4:55 am)
Wind Gust18.4 mph (4:55 am)
Weather ElementAverage
Visibility10 mi
Wind DirectionWSW (259.9 °)

Weather ElementTotal
Precipitation---
Heating Degree Days18.6 (Base 65)
Averaged from 70 records on February 13, 2013
WEATHER CONDITIONS BREAKOUT
WIND DIRECTION BREAKOUT
WEATHER BY HOUR - FEBRUARY 13, 2013
[ °C ]   °F
Local TimeTemperatureDewpointHumidityBarometerVisibilityWind DirectionWind SpeedGust SpeedPrecipitationEventsConditions
12:35 AM37.4 °F35.6 °F93 %30.03 in10.0 miNNW (330°)10.4 mphOvercast
12:55 AM37.4 °F35.6 °F93 %30.03 in10.0 miNNW (330°)11.5 mphOvercast
1:15 AM37.4 °F35.6 °F93 %30.03 in10.0 miNNW (330°)9.2 mphOvercast
1:35 AM37.4 °F35.6 °F93 %30.03 in10.0 miNW (320°)10.4 mphOvercast
1:55 AM37.4 °F35.6 °F93 %30.04 in10.0 miNNW (330°)10.4 mphOvercast
2:15 AM37.4 °F35.6 °F93 %30.04 in10.0 miNNW (340°)12.7 mphOvercast
2:35 AM37.4 °F35.6 °F93 %30.04 in10.0 miNNW (330°)9.2 mphOvercast
2:55 AM37.4 °F35.6 °F93 %30.04 in10.0 miNW (320°)9.2 mphOvercast
3:15 AM37.4 °F35.6 °F93 %30.05 in10.0 miNW (320°)8.1 mphOvercast
3:35 AM37.4 °F35.6 °F93 %30.05 in10.0 miNNW (330°)10.4 mphOvercast
3:55 AM37.4 °F35.6 °F93 %30.06 in10.0 miNW (320°)8.1 mphOvercast
4:15 AM37.4 °F35.6 °F93 %30.06 in10.0 miNW (320°)8.1 mphOvercast
4:35 AM37.4 °F35.6 °F93 %30.06 in10.0 miNW (320°)8.1 mphOvercast
4:55 AM37.4 °F35.6 °F93 %30.06 in10.0 miNW (320°)13.8 mph18.4 mphOvercast
5:15 AM37.4 °F35.6 °F93 %30.06 in10.0 miNW (320°)9.2 mphOvercast
5:35 AM37.4 °F35.6 °F93 %30.06 in10.0 miNW (310°)5.8 mphOvercast
5:55 AM37.4 °F35.6 °F93 %30.08 in10.0 miWNW (300°)6.9 mphOvercast
6:15 AM37.4 °F35.6 °F93 %30.08 in10.0 miWNW (300°)5.8 mphOvercast
6:35 AM37.4 °F35.6 °F93 %30.09 in10.0 miNW (310°)11.5 mphOvercast
6:55 AM37.4 °F35.6 °F93 %30.09 in10.0 miNW (310°)8.1 mphOvercast
7:15 AM37.4 °F35.6 °F93 %30.09 in10.0 miNW (310°)5.8 mphOvercast
7:35 AM37.4 °F35.6 °F93 %30.09 in10.0 miNW (310°)5.8 mphOvercast
7:55 AM39.2 °F35.6 °F87 %30.10 in10.0 miNW (320°)5.8 mphOvercast
8:15 AM39.2 °F35.6 °F87 %30.11 in10.0 miWNW (300°)8.1 mphOvercast
8:35 AM39.2 °F35.6 °F87 %30.12 in10.0 miNNW (340°)10.4 mphOvercast
8:55 AM39.2 °F35.6 °F87 %30.13 in10.0 miNNW (330°)8.1 mphOvercast
9:15 AM39.2 °F35.6 °F87 %30.13 in10.0 miNW (320°)9.2 mphOvercast
9:35 AM39.2 °F35.6 °F87 %30.14 in10.0 miNW (320°)8.1 mphOvercast
9:55 AM41.0 °F35.6 °F81 %30.14 in10.0 miCalmOvercast
10:15 AM41.0 °F35.6 °F81 %30.14 in10.0 miWNW (300°)5.8 mphOvercast
10:35 AM44.6 °F35.6 °F71 %30.13 in10.0 miCalmMostly Cloudy
10:55 AM44.6 °F35.6 °F71 %30.13 in10.0 miCalmScattered Clouds
11:15 AM46.4 °F35.6 °F66 %30.13 in10.0 miSW (230°)5.8 mphScattered Clouds
11:35 AM46.4 °F35.6 °F66 %30.12 in10.0 miWNW (300°)4.6 mphScattered Clouds
11:55 AM48.2 °F37.4 °F66 %30.12 in10.0 miSW (220°)5.8 mphScattered Clouds
12:15 PM50.0 °F37.4 °F62 %30.12 in10.0 miSSW (200°)3.5 mphScattered Clouds
12:55 PM50.0 °F35.6 °F58 %30.09 in10.0 miWNW (300°)5.8 mphClear
1:15 PM50.0 °F35.6 °F58 %30.08 in10.0 miWSW (240°)8.1 mphClear
1:35 PM51.8 °F35.6 °F54 %30.07 in10.0 miWest (270°)5.8 mphClear
1:55 PM51.8 °F35.6 °F54 %30.06 in10.0 miWest (270°)5.8 mphClear
2:15 PM51.8 °F35.6 °F54 %30.05 in10.0 miWest (260°)6.9 mphClear
2:35 PM53.6 °F35.6 °F51 %30.04 in10.0 miWNW (300°)6.9 mphClear
2:55 PM53.6 °F35.6 °F51 %30.04 in10.0 miWest (270°)8.1 mphClear
3:15 PM53.6 °F35.6 °F51 %30.03 in10.0 miWest (280°)8.1 mphClear
3:35 PM53.6 °F35.6 °F51 %30.03 in10.0 miWSW (250°)8.1 mphClear
3:55 PM53.6 °F33.8 °F47 %30.02 in10.0 miWest (260°)4.6 mphClear
4:15 PM55.4 °F33.8 °F44 %30.02 in10.0 miWSW (240°)11.5 mphClear
4:35 PM55.4 °F33.8 °F44 %30.02 in10.0 miWSW (250°)6.9 mphClear
4:55 PM55.4 °F33.8 °F44 %30.01 in10.0 miSW (230°)6.9 mphClear
5:15 PM53.6 °F35.6 °F51 %30.01 in10.0 miSW (220°)8.1 mphClear
5:35 PM53.6 °F35.6 °F51 %30.00 in10.0 miSW (220°)6.9 mphClear
5:55 PM51.8 °F37.4 °F58 %30.00 in10.0 miSSW (210°)4.6 mphClear
6:15 PM50.0 °F37.4 °F62 %30.01 in10.0 miSSW (210°)6.9 mphClear
6:35 PM48.2 °F37.4 °F66 %30.01 in10.0 miSSW (210°)5.8 mphClear
6:55 PM46.4 °F37.4 °F71 %30.01 in10.0 miSW (230°)3.5 mphClear
7:15 PM44.6 °F37.4 °F76 %30.02 in10.0 miSSW (210°)4.6 mphClear
7:35 PM44.6 °F37.4 °F76 %30.02 in10.0 miSW (220°)5.8 mphClear
7:55 PM42.8 °F37.4 °F81 %30.02 in10.0 miSSW (210°)6.9 mphClear
8:15 PM42.8 °F37.4 °F81 %30.02 in10.0 miSW (220°)5.8 mphClear
8:35 PM42.8 °F37.4 °F81 %30.03 in10.0 miWSW (240°)4.6 mphClear
8:55 PM42.8 °F37.4 °F81 %30.03 in10.0 miSW (220°)5.8 mphClear
9:15 PM42.8 °F37.4 °F81 %30.03 in10.0 miSW (220°)6.9 mphClear
9:35 PM41.0 °F35.6 °F81 %30.03 in10.0 miSSW (210°)5.8 mphClear
9:55 PM41.0 °F35.6 °F81 %30.03 in10.0 miSW (220°)5.8 mphClear
10:15 PM41.0 °F35.6 °F81 %30.03 in10.0 miSSW (210°)6.9 mphClear
10:35 PM41.0 °F35.6 °F81 %30.03 in10.0 miSSW (210°)6.9 mphClear
10:55 PM39.2 °F35.6 °F87 %30.04 in10.0 miSSW (210°)6.9 mphClear
11:15 PM39.2 °F35.6 °F87 %30.04 in10.0 miSW (220°)6.9 mphClear
11:35 PM37.4 °F33.8 °F87 %30.04 in10.0 miSW (230°)6.9 mphClear
11:55 PM37.4 °F33.8 °F87 %30.04 in10.0 miSSW (210°)5.8 mphClear
Hourly data recorded from KDUA, located miles away from Telephone, Texas







STORIES FROM OUR PARTNERS